Regional Weather Roundup
Issued by NWS

Home | Current Version | Previous Version | Text Only | Print | Product List | Glossary On
Versions: 1 2 3 4 5 6 7 8 9 10 11 12 13 14 15 16 17 18 19 20 21 22 23 24 25 26 27 28 29 30 31 32 33 34 35 36 37 38 39 40 41 42 43 44 45 46 47 48 49 50
000
ASUS44 KOUN 280010
RWROK

WEATHER ROUNDUP FOR OKLAHOMA
NATIONAL WEATHER SERVICE NORMAN OK
700 PM CDT THU AUG 27 2015

NOTE: "FAIR" INDICATES FEW OR NO CLOUDS BELOW 12,000 FEET WITH NO
      SIGNIFICANT WEATHER AND/OR OBSTRUCTIONS TO VISIBILITY.

OKZ001>007-009>012-014-015-017-280100-
NORTHWEST OKLAHOMA AND THE PANHANDLE

CITY           SKY/WX    TMP DP  RH WIND       PRES   REMARKS
GAGE           FAIR      90  56  31 S17       29.92F
6HR MIN TEMP:  90; 6HR MAX TEMP: 100;

GUYMON         FAIR      90  55  30 S15       29.90S
ENID/WOODRING  PTSUNNY   84  70  61 SE16      29.92F
$$

OKZ016-021>023-033>039-044-045-280100-
SOUTHWEST OKLAHOMA

CITY           SKY/WX    TMP DP  RH WIND       PRES   REMARKS
LAWTON/REGL    FAIR      95  61  32 S13       29.95F HX  95
6HR MIN TEMP:  94; 6HR MAX TEMP:  99;

LAWTON/FT SILL PTSUNNY   93  63  36 S14       29.94F HX  94
FREDERICK      FAIR      95  62  33 SE16      29.92S HX  96
CLINTON        FAIR      94  54  25 S15       29.97F HX  92
HOBART         FAIR      97  55  24 S21       29.95F HX  95
ALTUS AFB      SUNNY     94  61  33 SE17      29.92F HX  94
$$

OKZ018>020-024>031-280100-
CENTRAL OKLAHOMA

CITY           SKY/WX    TMP DP  RH WIND       PRES   REMARKS
OKLAHOMA CITY  CLOUDY    88  67  49 S8        29.96F HX  91
6HR MIN TEMP:  88; 6HR MAX TEMP:  94;

OKC/WILEY POST FAIR      89  66  46 S16       29.96F HX  91
OKC/TINKER AFB FAIR      85  71  62 SE6       29.97S
STILLWATER     FAIR      82  66  58 SE10      29.96S
GUTHRIE        FAIR      85  70  60 SE9       29.95F
$$

OKZ008-013-054>072-280100-
NORTHEAST OKLAHOMA

CITY           SKY/WX    TMP DP  RH WIND       PRES   REMARKS
TULSA          PTSUNNY   76  65  68 SE9       29.99F
6HR MIN TEMP:  69; 6HR MAX TEMP:  83; 6HR PCP:  0.01;

TULSA/JONES    FAIR      78  64  61 S7        30.00F
PONCA CITY     FAIR      83  68  60 SE12      29.94F
BARTLESVILLE   FAIR      75  67  76 SE9       30.00F
MUSKOGEE       FAIR      74  68  81 SE8       30.03F
$$

OKZ032-040>043-046>053-073>077-280100-
SOUTH CENTRAL/SOUTHEAST OKLAHOMA

CITY           SKY/WX    TMP DP  RH WIND       PRES   REMARKS
ARDMORE/DWNTWN FAIR      86  63  45 SE5       29.96F
MCALESTER      FAIR      81  69  67 CALM      30.02F
$$



USA.gov is the U.S. government's official web portal to all federal, state and local government web resources and services.